CST,Max TemperatureF,Mean TemperatureF,Min TemperatureF,Max Dew PointF,MeanDew PointF,Min DewpointF,Max Humidity, Mean Humidity, Min Humidity, Max Sea Level PressureIn, Mean Sea Level PressureIn, Min Sea Level PressureIn, Max VisibilityMiles, Mean VisibilityMiles, Min VisibilityMiles, Max Wind SpeedMPH, Mean Wind SpeedMPH, Max Gust SpeedMPH,PrecipitationIn, CloudCover, Events, WindDirDegrees
2012-11-1,62,48,36,41,31,23,86,57,36,30.03,29.96,29.88,10,10,9,6,3,,0.00,2,,253
2012-11-2,55,47,39,37,33,31,89,61,41,30.10,30.04,29.92,10,10,10,8,4,,0.00,0,,51
2012-11-3,52,45,37,39,36,33,89,68,54,30.21,30.09,30.02,10,10,6,12,8,,0.00,4,,52
2012-11-4,52,40,30,35,32,28,100,81,48,30.28,30.22,30.17,10,7,1,6,2,,0.00,1,,46
2012-11-5,43,42,41,40,38,35,89,85,74,30.17,30.12,30.08,10,7,2,10,6,,0.06,8,Rain,106
2012-11-6,46,42,39,43,40,36,89,83,73,30.09,30.00,29.94,10,7,4,7,3,,0.14,7,Rain,234
2012-11-7,48,39,30,42,36,28,96,78,66,30.21,30.09,29.95,10,9,2,17,8,23,0.01,5,,335
2012-11-8,55,40,26,40,32,25,100,79,49,30.26,30.18,30.09,10,8,2,12,2,,0.00,0,,154
2012-11-9,70,56,41,53,45,36,82,67,49,30.09,30.01,29.92,10,10,10,14,7,22,0.03,2,,167
2012-11-10,77,67,57,52,47,43,65,52,31,30.01,29.97,29.92,10,10,5,17,9,25,0.00,0,,169
2012-11-11,66,54,39,56,49,36,94,83,58,30.11,29.97,29.82,10,6,1,21,9,38,1.33,7,Rain,242
2012-11-12,45,38,30,33,23,19,83,60,37,30.46,30.32,30.16,10,10,10,22,12,26,0.00,2,,281
2012-11-13,48,38,27,27,24,21,89,64,34,30.56,30.50,30.46,10,10,10,6,1,,0.00,0,,155
2012-11-14,48,38,28,28,26,25,89,70,41,30.52,30.45,30.38,10,10,10,6,1,,0.00,0,,107
2012-11-15,52,39,26,31,27,23,89,73,35,30.43,30.38,30.34,10,10,7,5,0,,0.00,0,,130
2012-11-16,57,42,28,33,30,26,92,70,35,30.48,30.44,30.40,10,10,7,5,0,,0.00,0,,130
2012-11-17,55,41,27,34,30,24,92,75,39,30.53,30.46,30.41,10,9,5,6,1,,0.00,0,,116
2012-11-18,60,44,27,38,32,25,96,69,39,30.42,30.36,30.30,10,9,5,8,2,,0.00,0,,143
2012-11-19,59,48,37,42,38,33,83,65,49,30.30,30.21,30.13,10,10,10,6,4,,0.00,4,Rain,160
2012-11-20,61,49,37,48,43,35,96,79,57,30.21,30.14,30.08,10,8,1,10,2,,0.00,2,,317
2012-11-21,62,50,37,50,42,36,100,92,62,30.30,30.22,30.16,7,2,0,8,1,,0.00,1,Fog,147
2012-11-22,68,54,41,52,45,40,96,76,40,30.15,30.05,29.94,10,7,2,14,7,23,0.14,2,Rain,180
2012-11-23,50,40,30,38,26,18,71,59,42,30.38,30.27,30.14,10,10,10,23,16,32,0.00,2,,306
2012-11-24,35,30,26,23,19,16,72,63,52,30.38,30.26,30.06,10,10,10,12,7,,0.00,0,,257
2012-11-25,55,44,33,30,26,22,79,56,33,30.06,29.99,29.92,10,10,10,9,4,,0.00,0,,197
2012-11-26,45,38,30,29,26,20,89,66,45,30.40,30.23,30.06,10,10,10,21,7,25,0.00,6,,9
2012-11-27,39,30,21,21,19,16,84,65,45,30.49,30.40,30.35,10,10,9,9,5,,0.00,0,,336
2012-11-28,48,34,21,28,23,19,89,68,42,30.47,30.39,30.33,10,9,7,7,1,,0.00,0,,168
2012-11-29,59,44,30,33,29,25,82,58,33,30.32,30.21,30.11,10,10,10,12,5,,0.00,0,,164
2012-11-30,66,52,37,42,36,29,76,59,42,30.14,30.11,30.06,10,10,10,9,5,16,0.00,0,,165